contact:dominique.lefevre@mio.osupytheas.fr, maurice.libes@osupytheas.fr, didier.mallarino@osupytheas.fr
Project:EMSO http://www.emso-fr.org/EMSO-France
Depth: 2436.0 m
Title:EMSO Ligure Ouest : Data MII capteur MICROCAT
DateTime_Computer,Latitude,Longitude,Temperature,Conductivity,Pressure,DateTime_Instrument
DateTime_Computer,Latitude,Longitude,degC,S m-1,dbar,DateTime_Instrument
2022-11-26T00:00:35Z,42.805,6.029,13.3014,4.60064,2470.684,2022-11-26T02:02:34Z
2022-11-26T00:03:38Z,42.805,6.029,13.3014,4.60064,2470.646,2022-11-26T02:05:37Z
2022-11-26T00:06:41Z,42.805,6.029,13.3016,4.60066,2470.614,2022-11-26T02:08:41Z
2022-11-26T00:09:45Z,42.805,6.029,13.3015,4.60064,2470.637,2022-11-26T02:11:44Z
2022-11-26T00:12:48Z,42.805,6.029,13.3015,4.60062,2470.646,2022-11-26T02:14:47Z
2022-11-26T00:15:51Z,42.805,6.029,13.3015,4.60067,2470.661,2022-11-26T02:17:50Z
2022-11-26T00:18:54Z,42.805,6.029,13.3017,4.60064,2470.577,2022-11-26T02:20:53Z
2022-11-26T00:21:57Z,42.805,6.029,13.3014,4.60067,2470.6,2022-11-26T02:23:56Z
2022-11-26T00:25:00Z,42.805,6.029,13.3016,4.60065,2470.646,2022-11-26T02:26:59Z
2022-11-26T00:28:03Z,42.805,6.029,13.3015,4.60069,2470.624,2022-11-26T02:30:02Z
2022-11-26T00:31:06Z,42.805,6.029,13.3018,4.60067,2470.624,2022-11-26T02:33:05Z
2022-11-26T00:34:09Z,42.805,6.029,13.3014,4.60068,2470.624,2022-11-26T02:36:08Z
2022-11-26T00:37:12Z,42.805,6.029,13.3016,4.60068,2470.637,2022-11-26T02:39:11Z
2022-11-26T00:40:15Z,42.805,6.029,13.3014,4.60066,2470.6,2022-11-26T02:42:14Z
2022-11-26T00:43:18Z,42.805,6.029,13.3014,4.60064,2470.6,2022-11-26T02:45:18Z
2022-11-26T00:46:22Z,42.805,6.029,13.3015,4.60066,2470.637,2022-11-26T02:48:21Z
2022-11-26T00:49:25Z,42.805,6.029,13.3014,4.60066,2470.6,2022-11-26T02:51:24Z
2022-11-26T00:52:28Z,42.805,6.029,13.3014,4.60069,2470.614,2022-11-26T02:54:27Z
2022-11-26T00:55:31Z,42.805,6.029,13.3017,4.60067,2470.6,2022-11-26T02:57:30Z
2022-11-26T00:58:34Z,42.805,6.029,13.3015,4.60069,2470.624,2022-11-26T03:00:33Z
2022-11-26T01:01:37Z,42.805,6.029,13.3015,4.60066,2470.624,2022-11-26T03:03:36Z
2022-11-26T01:04:40Z,42.805,6.029,13.3016,4.60066,2470.577,2022-11-26T03:06:39Z
2022-11-26T01:07:43Z,42.805,6.029,13.3015,4.60064,2470.637,2022-11-26T03:09:42Z
2022-11-26T01:10:46Z,42.805,6.029,13.3015,4.60064,2470.614,2022-11-26T03:12:45Z
2022-11-26T01:13:49Z,42.805,6.029,13.3015,4.60067,2470.6,2022-11-26T03:15:48Z
2022-11-26T01:16:52Z,42.805,6.029,13.3014,4.60068,2470.637,2022-11-26T03:18:51Z
2022-11-26T01:19:55Z,42.805,6.029,13.3015,4.60064,2470.591,2022-11-26T03:21:54Z
2022-11-26T01:22:58Z,42.805,6.029,13.3014,4.60067,2470.6,2022-11-26T03:24:58Z
2022-11-26T01:26:01Z,42.805,6.029,13.3019,4.60064,2470.577,2022-11-26T03:28:01Z
2022-11-26T01:29:05Z,42.805,6.029,13.3014,4.60066,2470.624,2022-11-26T03:31:04Z
2022-11-26T01:32:08Z,42.805,6.029,13.3015,4.60068,2470.577,2022-11-26T03:34:07Z
2022-11-26T01:35:11Z,42.805,6.029,13.3015,4.60066,2470.591,2022-11-26T03:37:10Z
2022-11-26T01:38:14Z,42.805,6.029,13.3014,4.60067,2470.614,2022-11-26T03:40:13Z
2022-11-26T01:41:17Z,42.805,6.029,13.3019,4.60066,2470.6,2022-11-26T03:43:16Z
2022-11-26T01:44:20Z,42.805,6.029,13.3018,4.60069,2470.591,2022-11-26T03:46:19Z
2022-11-26T01:47:23Z,42.805,6.029,13.3015,4.60069,2470.577,2022-11-26T03:49:22Z
2022-11-26T01:50:26Z,42.805,6.029,13.3016,4.60066,2470.591,2022-11-26T03:52:25Z
2022-11-26T01:53:29Z,42.805,6.029,13.3017,4.60068,2470.614,2022-11-26T03:55:28Z
2022-11-26T01:56:32Z,42.805,6.029,13.3015,4.60069,2470.614,2022-11-26T03:58:31Z
2022-11-26T01:59:35Z,42.805,6.029,13.3011,4.60064,2470.6,2022-11-26T04:01:34Z
2022-11-26T02:02:38Z,42.805,6.029,13.3017,4.60064,2470.6,2022-11-26T04:04:38Z
2022-11-26T02:05:41Z,42.805,6.029,13.3016,4.60069,2470.577,2022-11-26T04:07:41Z
2022-11-26T02:08:45Z,42.805,6.029,13.3015,4.60065,2470.577,2022-11-26T04:10:44Z
2022-11-26T02:11:48Z,42.805,6.029,13.3019,4.60065,2470.624,2022-11-26T04:13:47Z
2022-11-26T02:14:51Z,42.805,6.029,13.3011,4.60063,2470.577,2022-11-26T04:16:50Z
2022-11-26T02:17:54Z,42.805,6.029,13.3014,4.60064,2470.577,2022-11-26T04:19:53Z
2022-11-26T02:20:57Z,42.805,6.029,13.3013,4.60064,2470.567,2022-11-26T04:22:56Z
2022-11-26T02:24:00Z,42.805,6.029,13.3015,4.60064,2470.553,2022-11-26T04:25:59Z
2022-11-26T02:27:03Z,42.805,6.029,13.3015,4.60064,2470.591,2022-11-26T04:29:02Z
2022-11-26T02:30:06Z,42.805,6.029,13.3017,4.60064,2470.6,2022-11-26T04:32:05Z
2022-11-26T02:33:09Z,42.805,6.029,13.3014,4.60064,2470.553,2022-11-26T04:35:08Z
2022-11-26T02:36:12Z,42.805,6.029,13.3016,4.60065,2470.6,2022-11-26T04:38:11Z
2022-11-26T02:39:15Z,42.805,6.029,13.3011,4.60067,2470.6,2022-11-26T04:41:14Z
2022-11-26T02:42:18Z,42.805,6.029,13.3014,4.60064,2470.577,2022-11-26T04:44:18Z
2022-11-26T02:45:22Z,42.805,6.029,13.3016,4.60064,2470.577,2022-11-26T04:47:21Z
2022-11-26T02:48:25Z,42.805,6.029,13.3018,4.60064,2470.591,2022-11-26T04:50:24Z
2022-11-26T02:51:28Z,42.805,6.029,13.3015,4.60064,2470.6,2022-11-26T04:53:27Z
2022-11-26T02:54:31Z,42.805,6.029,13.3014,4.60063,2470.577,2022-11-26T04:56:30Z
2022-11-26T02:57:34Z,42.805,6.029,13.3014,4.60063,2470.567,2022-11-26T04:59:33Z
2022-11-26T03:00:37Z,42.805,6.029,13.3015,4.60064,2470.577,2022-11-26T05:02:36Z
2022-11-26T03:03:40Z,42.805,6.029,13.3017,4.60066,2470.591,2022-11-26T05:05:39Z
2022-11-26T03:06:43Z,42.805,6.029,13.3014,4.60064,2470.553,2022-11-26T05:08:42Z
2022-11-26T03:09:46Z,42.805,6.029,13.3014,4.60067,2470.6,2022-11-26T05:11:45Z
2022-11-26T03:12:49Z,42.805,6.029,13.3014,4.60064,2470.614,2022-11-26T05:14:48Z
2022-11-26T03:15:52Z,42.805,6.029,13.3015,4.60067,2470.6,2022-11-26T05:17:51Z
2022-11-26T03:18:55Z,42.805,6.029,13.3015,4.60063,2470.553,2022-11-26T05:20:54Z
2022-11-26T03:21:58Z,42.805,6.029,13.3017,4.60064,2470.567,2022-11-26T05:23:58Z
2022-11-26T03:25:02Z,42.805,6.029,13.3015,4.60064,2470.553,2022-11-26T05:27:01Z
2022-11-26T03:28:05Z,42.805,6.029,13.3015,4.60064,2470.591,2022-11-26T05:30:04Z
2022-11-26T03:31:08Z,42.805,6.029,13.3014,4.60064,2470.6,2022-11-26T05:33:07Z
2022-11-26T03:34:11Z,42.805,6.029,13.3015,4.60064,2470.553,2022-11-26T05:36:10Z
2022-11-26T03:37:14Z,42.805,6.029,13.3013,4.60064,2470.637,2022-11-26T05:39:13Z
2022-11-26T03:40:17Z,42.805,6.029,13.3015,4.60064,2470.591,2022-11-26T05:42:16Z
2022-11-26T03:43:20Z,42.805,6.029,13.3015,4.60064,2470.577,2022-11-26T05:45:19Z
2022-11-26T03:46:23Z,42.805,6.029,13.3011,4.60064,2470.591,2022-11-26T05:48:22Z
2022-11-26T03:49:26Z,42.805,6.029,13.3012,4.60064,2470.6,2022-11-26T05:51:25Z
2022-11-26T03:52:29Z,42.805,6.029,13.3014,4.60063,2470.6,2022-11-26T05:54:28Z
2022-11-26T03:55:32Z,42.805,6.029,13.3019,4.60063,2470.6,2022-11-26T05:57:31Z
2022-11-26T03:58:35Z,42.805,6.029,13.3018,4.60064,2470.6,2022-11-26T06:00:35Z
2022-11-26T04:01:38Z,42.805,6.029,13.3013,4.60065,2470.6,2022-11-26T06:03:38Z
2022-11-26T04:04:42Z,42.805,6.029,13.3014,4.60063,2470.591,2022-11-26T06:06:41Z
2022-11-26T04:07:45Z,42.805,6.029,13.3014,4.60064,2470.637,2022-11-26T06:09:44Z
2022-11-26T04:10:48Z,42.805,6.029,13.3017,4.60062,2470.6,2022-11-26T06:12:47Z
2022-11-26T04:13:51Z,42.805,6.029,13.3016,4.60064,2470.637,2022-11-26T06:15:50Z
2022-11-26T04:16:54Z,42.805,6.029,13.3015,4.60066,2470.6,2022-11-26T06:18:53Z
2022-11-26T04:19:57Z,42.805,6.029,13.3014,4.60064,2470.624,2022-11-26T06:21:56Z
2022-11-26T04:23:00Z,42.805,6.029,13.3014,4.60064,2470.614,2022-11-26T06:24:59Z
2022-11-26T04:26:03Z,42.805,6.029,13.3014,4.60063,2470.624,2022-11-26T06:28:02Z
2022-11-26T04:29:06Z,42.805,6.029,13.3017,4.60063,2470.624,2022-11-26T06:31:05Z
2022-11-26T04:32:09Z,42.805,6.029,13.3015,4.60064,2470.624,2022-11-26T06:34:08Z
2022-11-26T04:35:12Z,42.805,6.029,13.3019,4.60065,2470.646,2022-11-26T06:37:11Z
2022-11-26T04:38:15Z,42.805,6.029,13.3015,4.60066,2470.624,2022-11-26T06:40:15Z
2022-11-26T04:41:19Z,42.805,6.029,13.3014,4.60063,2470.624,2022-11-26T06:43:18Z
2022-11-26T04:44:22Z,42.805,6.029,13.3019,4.60064,2470.646,2022-11-26T06:46:21Z
2022-11-26T04:47:25Z,42.805,6.029,13.3013,4.60064,2470.624,2022-11-26T06:49:24Z
2022-11-26T04:50:28Z,42.805,6.029,13.3016,4.60064,2470.637,2022-11-26T06:52:27Z
2022-11-26T04:53:31Z,42.805,6.029,13.3013,4.60062,2470.637,2022-11-26T06:55:30Z
2022-11-26T04:56:34Z,42.805,6.029,13.3013,4.60063,2470.646,2022-11-26T06:58:33Z
2022-11-26T04:59:37Z,42.805,6.029,13.3016,4.60064,2470.656,2022-11-26T07:01:36Z
2022-11-26T05:02:40Z,42.805,6.029,13.3014,4.60065,2470.646,2022-11-26T07:04:39Z
2022-11-26T05:05:43Z,42.805,6.029,13.3017,4.60064,2470.646,2022-11-26T07:07:42Z
2022-11-26T05:08:46Z,42.805,6.029,13.3014,4.60064,2470.67,2022-11-26T07:10:45Z
2022-11-26T05:11:49Z,42.805,6.029,13.3017,4.60064,2470.67,2022-11-26T07:13:48Z
2022-11-26T05:14:52Z,42.805,6.029,13.3017,4.60064,2470.693,2022-11-26T07:16:52Z
2022-11-26T05:17:55Z,42.805,6.029,13.3017,4.60064,2470.707,2022-11-26T07:19:55Z
2022-11-26T05:20:59Z,42.805,6.029,13.3017,4.60066,2470.67,2022-11-26T07:22:58Z
2022-11-26T05:24:02Z,42.805,6.029,13.3017,4.60065,2470.67,2022-11-26T07:26:01Z
2022-11-26T05:27:05Z,42.805,6.029,13.3014,4.60065,2470.67,2022-11-26T07:29:04Z
2022-11-26T05:30:08Z,42.805,6.029,13.3015,4.60065,2470.693,2022-11-26T07:32:07Z
2022-11-26T05:33:11Z,42.805,6.029,13.3017,4.60064,2470.693,2022-11-26T07:35:10Z
2022-11-26T05:36:14Z,42.805,6.029,13.3016,4.60064,2470.693,2022-11-26T07:38:13Z
2022-11-26T05:39:17Z,42.805,6.029,13.3015,4.60064,2470.707,2022-11-26T07:41:16Z
2022-11-26T05:42:20Z,42.805,6.029,13.3018,4.60064,2470.717,2022-11-26T07:44:19Z
2022-11-26T05:45:23Z,42.805,6.029,13.3013,4.60064,2470.73,2022-11-26T07:47:22Z
2022-11-26T05:48:26Z,42.805,6.029,13.3014,4.60064,2470.73,2022-11-26T07:50:25Z
2022-11-26T05:51:29Z,42.805,6.029,13.3015,4.60067,2470.693,2022-11-26T07:53:28Z
2022-11-26T05:54:32Z,42.805,6.029,13.3014,4.60064,2470.717,2022-11-26T07:56:32Z
2022-11-26T05:57:35Z,42.805,6.029,13.3018,4.60064,2470.717,2022-11-26T07:59:35Z
2022-11-26T06:00:39Z,42.805,6.029,13.3017,4.60064,2470.717,2022-11-26T08:02:38Z
2022-11-26T06:03:42Z,42.805,6.029,13.3012,4.60063,2470.763,2022-11-26T08:05:41Z
2022-11-26T06:06:45Z,42.805,6.029,13.3015,4.60064,2470.74,2022-11-26T08:08:44Z
2022-11-26T06:09:48Z,42.805,6.029,13.3015,4.60064,2470.754,2022-11-26T08:11:47Z
2022-11-26T06:12:51Z,42.805,6.029,13.3013,4.60064,2470.763,2022-11-26T08:14:50Z
2022-11-26T06:15:54Z,42.805,6.029,13.3015,4.60065,2470.754,2022-11-26T08:17:53Z
2022-11-26T06:18:57Z,42.805,6.029,13.3014,4.60064,2470.763,2022-11-26T08:20:56Z
2022-11-26T06:22:00Z,42.805,6.029,13.3015,4.60064,2470.777,2022-11-26T08:23:59Z
2022-11-26T06:25:03Z,42.805,6.029,13.3014,4.60064,2470.763,2022-11-26T08:27:02Z
2022-11-26T06:28:06Z,42.805,6.029,13.3015,4.60064,2470.8,2022-11-26T08:30:05Z
2022-11-26T06:31:09Z,42.805,6.029,13.3015,4.60064,2470.777,2022-11-26T08:33:08Z
2022-11-26T06:34:12Z,42.805,6.029,13.3014,4.60066,2470.763,2022-11-26T08:36:12Z
2022-11-26T06:37:15Z,42.805,6.029,13.3016,4.60064,2470.81,2022-11-26T08:39:15Z
2022-11-26T06:40:19Z,42.805,6.029,13.3015,4.60064,2470.777,2022-11-26T08:42:18Z
2022-11-26T06:43:22Z,42.805,6.029,13.3016,4.60064,2470.787,2022-11-26T08:45:21Z
2022-11-26T06:46:25Z,42.805,6.029,13.3017,4.60065,2470.787,2022-11-26T08:48:24Z
2022-11-26T06:49:28Z,42.805,6.029,13.3015,4.60065,2470.763,2022-11-26T08:51:27Z
2022-11-26T06:52:31Z,42.805,6.029,13.3014,4.60066,2470.787,2022-11-26T08:54:30Z
2022-11-26T06:55:34Z,42.805,6.029,13.3015,4.60067,2470.81,2022-11-26T08:57:33Z
2022-11-26T06:58:37Z,42.805,6.029,13.3019,4.60064,2470.871,2022-11-26T09:00:36Z
2022-11-26T07:01:40Z,42.805,6.029,13.3017,4.60066,2470.81,2022-11-26T09:03:39Z
2022-11-26T07:04:43Z,42.805,6.029,13.3012,4.60067,2470.824,2022-11-26T09:06:42Z
2022-11-26T07:07:46Z,42.805,6.029,13.3015,4.60064,2470.787,2022-11-26T09:09:45Z
2022-11-26T07:10:49Z,42.805,6.029,13.3015,4.60066,2470.81,2022-11-26T09:12:48Z
2022-11-26T07:13:52Z,42.805,6.029,13.3019,4.60064,2470.857,2022-11-26T09:15:52Z
2022-11-26T07:16:56Z,42.805,6.029,13.3017,4.60065,2470.824,2022-11-26T09:18:55Z
2022-11-26T07:19:59Z,42.805,6.029,13.3015,4.60064,2470.847,2022-11-26T09:21:58Z
2022-11-26T07:23:02Z,42.805,6.029,13.3015,4.60064,2470.833,2022-11-26T09:25:01Z
2022-11-26T07:26:05Z,42.805,6.029,13.3012,4.60064,2470.847,2022-11-26T09:28:04Z
2022-11-26T07:29:08Z,42.805,6.029,13.3015,4.60064,2470.871,2022-11-26T09:31:07Z
2022-11-26T07:32:11Z,42.805,6.029,13.3015,4.60064,2470.833,2022-11-26T09:34:10Z
2022-11-26T07:35:14Z,42.805,6.029,13.3017,4.60067,2470.847,2022-11-26T09:37:13Z
2022-11-26T07:38:17Z,42.805,6.029,13.3019,4.60067,2470.847,2022-11-26T09:40:16Z
2022-11-26T07:41:20Z,42.805,6.029,13.3014,4.60065,2470.833,2022-11-26T09:43:19Z
2022-11-26T07:44:23Z,42.805,6.029,13.3015,4.60063,2470.857,2022-11-26T09:46:22Z
2022-11-26T08:08:08Z,42.805,6.029,13.3018,4.60064,2470.88,2022-11-26T10:10:07Z
2022-11-26T08:11:11Z,42.805,6.029,13.3017,4.60067,2470.894,2022-11-26T10:13:10Z
2022-11-26T08:14:14Z,42.805,6.029,13.3014,4.60068,2470.843,2022-11-26T10:16:13Z
2022-11-26T08:17:17Z,42.805,6.029,13.3017,4.60064,2470.857,2022-11-26T10:19:16Z
2022-11-26T08:20:20Z,42.805,6.029,13.3019,4.60065,2470.847,2022-11-26T10:22:19Z
2022-11-26T08:23:23Z,42.805,6.029,13.3019,4.60067,2470.857,2022-11-26T10:25:22Z
2022-11-26T08:26:26Z,42.805,6.029,13.3016,4.60067,2470.857,2022-11-26T10:28:26Z
2022-11-26T08:29:30Z,42.805,6.029,13.3020,4.60066,2470.833,2022-11-26T10:31:29Z
2022-11-26T08:32:33Z,42.805,6.029,13.3020,4.60064,2470.88,2022-11-26T10:34:32Z
2022-11-26T08:35:36Z,42.805,6.029,13.3018,4.60069,2470.857,2022-11-26T10:37:35Z
2022-11-26T08:38:39Z,42.805,6.029,13.3015,4.60066,2470.894,2022-11-26T10:40:38Z
2022-11-26T08:41:42Z,42.805,6.029,13.3015,4.60065,2470.894,2022-11-26T10:43:41Z
2022-11-26T08:44:45Z,42.805,6.029,13.3016,4.60067,2470.833,2022-11-26T10:46:44Z
2022-11-26T08:47:48Z,42.805,6.029,13.3016,4.60066,2470.857,2022-11-26T10:49:47Z
2022-11-26T08:50:51Z,42.805,6.029,13.3015,4.60066,2470.847,2022-11-26T10:52:50Z
2022-11-26T08:53:54Z,42.805,6.029,13.3013,4.60064,2470.871,2022-11-26T10:55:53Z
2022-11-26T08:56:57Z,42.805,6.029,13.3018,4.60068,2470.857,2022-11-26T10:58:56Z
2022-11-26T09:00:00Z,42.805,6.029,13.3015,4.60067,2470.88,2022-11-26T11:01:59Z
2022-11-26T09:03:03Z,42.805,6.029,13.3019,4.60068,2470.833,2022-11-26T11:05:03Z
2022-11-26T09:06:06Z,42.805,6.029,13.3011,4.60066,2470.857,2022-11-26T11:08:06Z
2022-11-26T09:09:10Z,42.805,6.029,13.3014,4.60064,2470.847,2022-11-26T11:11:09Z
2022-11-26T09:12:13Z,42.805,6.029,13.3015,4.60067,2470.824,2022-11-26T11:14:12Z
2022-11-26T09:15:16Z,42.805,6.029,13.3018,4.60065,2470.857,2022-11-26T11:17:15Z
2022-11-26T09:18:19Z,42.805,6.029,13.3017,4.60066,2470.847,2022-11-26T11:20:18Z
2022-11-26T09:21:22Z,42.805,6.029,13.3012,4.60065,2470.857,2022-11-26T11:23:21Z
2022-11-26T09:24:25Z,42.805,6.029,13.3014,4.60065,2470.833,2022-11-26T11:26:24Z
2022-11-26T09:27:28Z,42.805,6.029,13.3014,4.60066,2470.857,2022-11-26T11:29:27Z
2022-11-26T09:30:31Z,42.805,6.029,13.3014,4.60066,2470.843,2022-11-26T11:32:30Z
2022-11-26T09:33:34Z,42.805,6.029,13.3015,4.60066,2470.904,2022-11-26T11:35:33Z
2022-11-26T09:36:37Z,42.805,6.029,13.3017,4.60064,2470.833,2022-11-26T11:38:36Z
2022-11-26T09:39:40Z,42.805,6.029,13.3018,4.60067,2470.857,2022-11-26T11:41:40Z
2022-11-26T09:42:43Z,42.805,6.029,13.3017,4.60067,2470.833,2022-11-26T11:44:43Z
2022-11-26T09:45:47Z,42.805,6.029,13.3016,4.60066,2470.857,2022-11-26T11:47:46Z
2022-11-26T09:48:50Z,42.805,6.029,13.3013,4.60064,2470.88,2022-11-26T11:50:49Z
2022-11-26T09:51:53Z,42.805,6.029,13.3015,4.60064,2470.857,2022-11-26T11:53:52Z
2022-11-26T09:54:56Z,42.805,6.029,13.3014,4.60066,2470.833,2022-11-26T11:56:55Z
2022-11-26T09:57:59Z,42.805,6.029,13.3014,4.60066,2470.871,2022-11-26T11:59:58Z
2022-11-26T10:01:02Z,42.805,6.029,13.3016,4.60069,2470.81,2022-11-26T12:03:01Z
2022-11-26T10:04:05Z,42.805,6.029,13.3018,4.60069,2470.833,2022-11-26T12:06:04Z
2022-11-26T10:07:08Z,42.805,6.029,13.3017,4.60067,2470.847,2022-11-26T12:09:07Z
2022-11-26T10:10:11Z,42.805,6.029,13.3017,4.60067,2470.824,2022-11-26T12:12:10Z
2022-11-26T10:13:14Z,42.805,6.029,13.3014,4.60066,2470.847,2022-11-26T12:15:13Z
2022-11-26T10:16:17Z,42.805,6.029,13.3019,4.60067,2470.847,2022-11-26T12:18:16Z
2022-11-26T10:19:20Z,42.805,6.029,13.3018,4.60064,2470.81,2022-11-26T12:21:20Z
2022-11-26T10:22:24Z,42.805,6.029,13.3019,4.60067,2470.857,2022-11-26T12:24:23Z
2022-11-26T10:25:27Z,42.805,6.029,13.3015,4.60067,2470.824,2022-11-26T12:27:26Z
2022-11-26T10:28:30Z,42.805,6.029,13.3015,4.60067,2470.847,2022-11-26T12:30:29Z
2022-11-26T10:31:33Z,42.805,6.029,13.3016,4.60065,2470.833,2022-11-26T12:33:32Z
2022-11-26T10:34:36Z,42.805,6.029,13.3018,4.60068,2470.871,2022-11-26T12:36:35Z
2022-11-26T10:37:39Z,42.805,6.029,13.3016,4.60067,2470.847,2022-11-26T12:39:38Z
2022-11-26T10:40:42Z,42.805,6.029,13.3021,4.60066,2470.81,2022-11-26T12:42:41Z
2022-11-26T10:43:45Z,42.805,6.029,13.3019,4.60066,2470.847,2022-11-26T12:45:44Z
2022-11-26T10:46:48Z,42.805,6.029,13.3016,4.60067,2470.824,2022-11-26T12:48:47Z
2022-11-26T10:49:51Z,42.805,6.029,13.3018,4.60064,2470.847,2022-11-26T12:51:50Z
2022-11-26T10:52:54Z,42.805,6.029,13.3015,4.60068,2470.833,2022-11-26T12:54:54Z
2022-11-26T10:55:57Z,42.805,6.029,13.3019,4.60067,2470.8,2022-11-26T12:57:57Z
2022-11-26T10:59:01Z,42.805,6.029,13.3020,4.60065,2470.787,2022-11-26T13:01:00Z
2022-11-26T11:02:04Z,42.805,6.029,13.3014,4.60067,2470.8,2022-11-26T13:04:03Z
2022-11-26T11:05:07Z,42.805,6.029,13.3015,4.60064,2470.81,2022-11-26T13:07:06Z
2022-11-26T11:08:10Z,42.805,6.029,13.3018,4.60064,2470.81,2022-11-26T13:10:09Z
2022-11-26T11:11:13Z,42.805,6.029,13.3019,4.60066,2470.824,2022-11-26T13:13:12Z
2022-11-26T11:14:16Z,42.805,6.029,13.3020,4.60069,2470.8,2022-11-26T13:16:15Z
2022-11-26T11:17:19Z,42.805,6.029,13.3015,4.60067,2470.787,2022-11-26T13:19:18Z
2022-11-26T11:20:22Z,42.805,6.029,13.3016,4.60066,2470.787,2022-11-26T13:22:21Z
2022-11-26T11:23:25Z,42.805,6.029,13.3015,4.60064,2470.787,2022-11-26T13:25:24Z
2022-11-26T11:26:28Z,42.805,6.029,13.3015,4.60065,2470.81,2022-11-26T13:28:27Z
2022-11-26T11:29:31Z,42.805,6.029,13.3018,4.60065,2470.8,2022-11-26T13:31:30Z
2022-11-26T11:32:34Z,42.805,6.029,13.3016,4.60066,2470.763,2022-11-26T13:34:34Z
2022-11-26T11:35:38Z,42.805,6.029,13.3013,4.60067,2470.8,2022-11-26T13:37:37Z
2022-11-26T11:38:41Z,42.805,6.029,13.3019,4.60068,2470.763,2022-11-26T13:40:40Z
2022-11-26T11:41:44Z,42.805,6.029,13.3015,4.60066,2470.8,2022-11-26T13:43:43Z
2022-11-26T11:44:47Z,42.805,6.029,13.3015,4.60067,2470.763,2022-11-26T13:46:46Z
2022-11-26T11:47:50Z,42.805,6.029,13.3018,4.60067,2470.763,2022-11-26T13:49:49Z
2022-11-26T11:50:53Z,42.805,6.029,13.3017,4.60064,2470.8,2022-11-26T13:52:52Z
2022-11-26T11:53:56Z,42.805,6.029,13.3019,4.60064,2470.777,2022-11-26T13:55:55Z
2022-11-26T11:56:59Z,42.805,6.029,13.3015,4.60067,2470.763,2022-11-26T13:58:58Z
2022-11-26T12:00:02Z,42.805,6.029,13.3016,4.60065,2470.8,2022-11-26T14:02:01Z
2022-11-26T12:03:05Z,42.805,6.029,13.3014,4.60064,2470.763,2022-11-26T14:05:04Z
2022-11-26T12:06:08Z,42.805,6.029,13.3017,4.60065,2470.777,2022-11-26T14:08:07Z
2022-11-26T12:09:11Z,42.805,6.029,13.3017,4.60063,2470.787,2022-11-26T14:11:11Z
2022-11-26T12:12:14Z,42.805,6.029,13.3012,4.60064,2470.763,2022-11-26T14:14:14Z
2022-11-26T12:15:18Z,42.805,6.029,13.3018,4.60064,2470.777,2022-11-26T14:17:17Z
2022-11-26T12:18:21Z,42.805,6.029,13.3015,4.60066,2470.763,2022-11-26T14:20:20Z
2022-11-26T12:21:24Z,42.805,6.029,13.3013,4.60064,2470.754,2022-11-26T14:23:23Z
2022-11-26T12:24:27Z,42.805,6.029,13.3021,4.60063,2470.763,2022-11-26T14:26:26Z
2022-11-26T12:27:30Z,42.805,6.029,13.3019,4.60063,2470.74,2022-11-26T14:29:29Z
2022-11-26T12:30:33Z,42.805,6.029,13.3018,4.60065,2470.74,2022-11-26T14:32:32Z
2022-11-26T12:33:36Z,42.805,6.029,13.3019,4.60067,2470.74,2022-11-26T14:35:35Z
2022-11-26T12:36:39Z,42.805,6.029,13.3020,4.60066,2470.754,2022-11-26T14:38:38Z
2022-11-26T12:39:42Z,42.805,6.029,13.3014,4.60069,2470.74,2022-11-26T14:41:41Z
2022-11-26T12:42:45Z,42.805,6.029,13.3018,4.60067,2470.763,2022-11-26T14:44:44Z
2022-11-26T12:45:48Z,42.805,6.029,13.3017,4.60064,2470.754,2022-11-26T14:47:48Z
2022-11-26T12:48:52Z,42.805,6.029,13.3018,4.60064,2470.754,2022-11-26T14:50:51Z
2022-11-26T12:51:55Z,42.805,6.029,13.3015,4.60067,2470.777,2022-11-26T14:53:54Z
2022-11-26T12:54:58Z,42.805,6.029,13.3019,4.60063,2470.717,2022-11-26T14:56:57Z
2022-11-26T12:58:01Z,42.805,6.029,13.3019,4.60068,2470.73,2022-11-26T15:00:00Z
2022-11-26T13:01:04Z,42.805,6.029,13.3018,4.60064,2470.73,2022-11-26T15:03:03Z
2022-11-26T13:04:07Z,42.805,6.029,13.3014,4.60063,2470.717,2022-11-26T15:06:06Z
2022-11-26T13:07:10Z,42.805,6.029,13.3014,4.60063,2470.73,2022-11-26T15:09:09Z
2022-11-26T13:10:13Z,42.805,6.029,13.3017,4.60063,2470.73,2022-11-26T15:12:12Z
2022-11-26T13:13:16Z,42.805,6.029,13.3011,4.60063,2470.754,2022-11-26T15:15:15Z
2022-11-26T13:16:19Z,42.805,6.029,13.3014,4.60068,2470.693,2022-11-26T15:18:18Z
2022-11-26T13:19:22Z,42.805,6.029,13.3013,4.60064,2470.73,2022-11-26T15:21:21Z
2022-11-26T13:22:25Z,42.805,6.029,13.3014,4.60063,2470.717,2022-11-26T15:24:25Z
2022-11-26T13:25:28Z,42.805,6.029,13.3017,4.60064,2470.73,2022-11-26T15:27:28Z
2022-11-26T13:28:32Z,42.805,6.029,13.3019,4.60067,2470.717,2022-11-26T15:30:31Z
2022-11-26T13:31:35Z,42.805,6.029,13.3015,4.60063,2470.707,2022-11-26T15:33:34Z
2022-11-26T13:34:38Z,42.805,6.029,13.3021,4.60064,2470.693,2022-11-26T15:36:37Z
2022-11-26T13:37:41Z,42.805,6.029,13.3016,4.60064,2470.679,2022-11-26T15:39:40Z
2022-11-26T13:40:44Z,42.805,6.029,13.3015,4.60062,2470.73,2022-11-26T15:42:43Z
2022-11-26T13:43:47Z,42.805,6.029,13.3014,4.60062,2470.684,2022-11-26T15:45:46Z
2022-11-26T13:46:50Z,42.805,6.029,13.3014,4.60063,2470.707,2022-11-26T15:48:49Z
2022-11-26T13:49:53Z,42.805,6.029,13.3015,4.60064,2470.67,2022-11-26T15:51:52Z
2022-11-26T13:52:56Z,42.805,6.029,13.3015,4.60063,2470.707,2022-11-26T15:54:55Z
2022-11-26T13:55:59Z,42.805,6.029,13.3015,4.60063,2470.67,2022-11-26T15:57:58Z
2022-11-26T13:59:02Z,42.805,6.029,13.3016,4.60062,2470.693,2022-11-26T16:01:02Z
2022-11-26T14:02:06Z,42.805,6.029,13.3016,4.60064,2470.693,2022-11-26T16:04:05Z
2022-11-26T14:05:09Z,42.805,6.029,13.3015,4.60064,2470.707,2022-11-26T16:07:08Z
2022-11-26T14:08:12Z,42.805,6.029,13.3015,4.60063,2470.693,2022-11-26T16:10:11Z
2022-11-26T14:11:15Z,42.805,6.029,13.3016,4.60063,2470.684,2022-11-26T16:13:14Z
2022-11-26T14:14:18Z,42.805,6.029,13.3014,4.60067,2470.684,2022-11-26T16:16:17Z
2022-11-26T14:17:21Z,42.805,6.029,13.3019,4.60063,2470.684,2022-11-26T16:19:20Z
2022-11-26T14:20:24Z,42.805,6.029,13.3014,4.60064,2470.656,2022-11-26T16:22:23Z
2022-11-26T14:23:27Z,42.805,6.029,13.3016,4.60067,2470.707,2022-11-26T16:25:26Z
2022-11-26T14:26:30Z,42.805,6.029,13.3015,4.60064,2470.684,2022-11-26T16:28:29Z
2022-11-26T14:29:33Z,42.805,6.029,13.3019,4.60064,2470.693,2022-11-26T16:31:32Z
2022-11-26T14:32:36Z,42.805,6.029,13.3017,4.60064,2470.646,2022-11-26T16:34:35Z
2022-11-26T14:35:39Z,42.805,6.029,13.3021,4.60062,2470.661,2022-11-26T16:37:39Z
2022-11-26T14:38:42Z,42.805,6.029,13.3019,4.60067,2470.661,2022-11-26T16:40:42Z
2022-11-26T14:41:46Z,42.805,6.029,13.3015,4.60064,2470.67,2022-11-26T16:43:45Z
2022-11-26T14:44:49Z,42.805,6.029,13.3016,4.60064,2470.67,2022-11-26T16:46:48Z
2022-11-26T14:47:52Z,42.805,6.029,13.3016,4.60070,2470.646,2022-11-26T16:49:51Z
2022-11-26T14:50:55Z,42.805,6.029,13.3016,4.60064,2470.661,2022-11-26T16:52:54Z
2022-11-26T14:53:58Z,42.805,6.029,13.3016,4.60067,2470.67,2022-11-26T16:55:57Z
2022-11-26T14:57:01Z,42.805,6.029,13.3013,4.60067,2470.637,2022-11-26T16:59:00Z
2022-11-26T15:00:04Z,42.805,6.029,13.3015,4.60064,2470.661,2022-11-26T17:02:03Z
2022-11-26T15:03:07Z,42.805,6.029,13.3019,4.60066,2470.661,2022-11-26T17:05:06Z
2022-11-26T15:06:10Z,42.805,6.029,13.3017,4.60069,2470.637,2022-11-26T17:08:09Z
2022-11-26T15:09:13Z,42.805,6.029,13.3017,4.60067,2470.661,2022-11-26T17:11:12Z
2022-11-26T15:12:16Z,42.805,6.029,13.3016,4.60063,2470.624,2022-11-26T17:14:16Z
2022-11-26T15:15:20Z,42.805,6.029,13.3016,4.60066,2470.624,2022-11-26T17:17:19Z
2022-11-26T15:18:23Z,42.805,6.029,13.3019,4.60069,2470.646,2022-11-26T17:20:22Z
2022-11-26T15:21:26Z,42.805,6.029,13.3019,4.60065,2470.661,2022-11-26T17:23:25Z